Regional Weather Roundup
Issued by NWS

Home | Current Version | Previous Version | Text Only | Print | Product List | Glossary Off
Versions: 1 2 3 4 5 6 7 8 9 10 11 12 13 14 15 16 17 18 19 20 21 22 23 24 25 26 27 28 29 30 31 32 33 34 35 36 37 38 39 40 41 42 43 44 45 46 47 48 49 50

000
ASUS43 KTOP 221559
RWRKS

WEATHER ROUNDUP FOR KANSAS
NATIONAL WEATHER SERVICE GOODLAND KS
1000 AM CST WED FEB 22 2017

NOTE:  "FAIR" INDICATES FEW OR NO CLOUDS BELOW 12,000 FEET WITH NO
SIGNIFICANT WEATHER AND/OR OBSTRUCTIONS TO VISIBILITY.

KSZ001>006-013>018-027>032-041>047-221700-
NORTHWEST KANSAS

CITY           SKY/WX    TMP DP  RH WIND       PRES   REMARKS
GOODLAND       SUNNY     54  31  41 N16       29.86S
HAYS           PTSUNNY   56  29  35 NW7       29.79S
HILL CITY      SUNNY     60  35  39 NW12      29.81R
RUSSELL        MOSUNNY   55  30  38 W8        29.77R
$$

KSZ061>065-074>080-084>089-221700-
SOUTHWEST KANSAS

CITY           SKY/WX    TMP DP  RH WIND       PRES   REMARKS
DODGE CITY     SUNNY     63  25  23 N14       29.84R
ELKHART          N/A     64  30  27 W12         N/A
GARDEN CITY    SUNNY     64  26  23 N18G29    29.86R
GREAT BEND     SUNNY     64  30  27 W14       29.80S
LIBERAL        SUNNY     63  28  27 W12       29.88S
$$

KSZ066>073-081>083-090>101-221700-
SOUTHEAST KANSAS

CITY           SKY/WX    TMP DP  RH WIND       PRES   REMARKS
CHANUTE        SUNNY     64  45  49 S17       29.81F
COFFEYVILLE    SUNNY     60  49  66 S10       29.85S
HUTCHINSON     MOSUNNY   60  37  42 W10       29.77F
MEDICINE LODGE   N/A     55  34  45 S6        29.79F
NEWTON         SUNNY     61  40  45 SW22      29.77
PARSONS        SUNNY     62  47  57 S10       29.84F
WICHITA INTL   MOSUNNY   60  41  49 S15       29.78F
WICHITA JABRA  SUNNY     60  39  45 S15       29.78F
WINFIELD       SUNNY     61  42  49 S9        29.82F
$$

KSZ007>012-019>026-033>040-048>060-102>105-221700-
NORTHEAST KANSAS

CITY           SKY/WX    TMP DP  RH WIND       PRES   REMARKS
CONCORDIA      MOSUNNY   60  29  30 W15       29.71S
EMPORIA        CLOUDY    69  33  26 SW26G38   29.74F
LAWRENCE       MOSUNNY   61  38  42 S7        29.75F
MANHATTAN      MOSUNNY   61  37  41 SW10      29.73R
OLATHE IND     PTSUNNY   57  45  64 S9        29.77F
OLATHE EXE     MOSUNNY   57  46  66 S13       29.77F
SALINA         CLOUDY    58  35  42 SW8       29.75S
TOPEKA BILLARD   N/A     60  38  43 S8        29.73F
TOPEKA FORBES  PTSUNNY   62  38  40 S15       29.73F
$$




USA.gov is the U.S. government's official web portal to all federal, state and local government web resources and services.